User: anonymous   Login
Location: Mentone
(34.5413°N, 85.5351°W)
Time: 13:29:27
(UTC-05:00)
Language:

Okean O Rocket - Orbit

View from above orbital plane
View from above orbital plane
View from above satellite
View from above satellite

Ground track
Ground track

The orbit data is extracted from the following two-line orbital elements,

1 25861U 99039B   16205.83639991  .00000062  00000-0  15793-4 0  9991
2 25861  98.0566 169.9101 0016975  61.8332 327.5681 14.78333914917266
Epoch (UTC): 23 July 2016 20:04:24
Eccentricity: 0.0016975
inclination: 98.0566°
perigee height: 622 km
apogee height: 646 km
right ascension of ascending node: 169.9101°
argument of perigee: 61.8332°
revolutions per day: 14.78333914
mean anomaly at epoch: 327.5681°
orbit number at epoch: 91726

The dashed part of the orbit path shows where the satellite is in the earth's shadow,  

DLR